FW6625 Weather Reports


time (UTC)temp
F
wind
direction
speed
knots
gust
knots
rain 1hr
in
rain 24hr
in
rain mn
in
humidity
%
barometer
mb
20260502123056 55 353 2.6 6.1 0.00 0.74 0.00 92 1018.6
20260502121541 55 306 2.6 5.2 0.00 0.74 0.00 92 1018.4
20260502114544 55 303 1.7 7.0 0.00 0.74 0.00 93 1017.8
20260502113042 55 323 1.7 6.1 0.00 0.74 0.00 93 1017.6
20260502111543 55 298 1.7 3.5 0.00 0.74 0.00 93 1017.2
20260502110039 56 328 0.9 3.5 0.00 0.74 0.00 93 1017.3
20260502104546 56 284 0.9 4.3 0.00 0.74 0.00 93 1016.9
20260502103038 56 276 1.7 4.3 0.00 0.74 0.00 93 1016.6
20260502101559 57 319 1.7 5.2 0.00 0.74 0.00 93 1016.5
20260502070051 57 349 3.5 7.8 0.00 0.74 0.00 94 1015.9
20260502064543 57 340 2.6 7.8 0.00 0.74 0.00 93 1015.6
20260502063042 57 319 3.5 7.8 0.00 0.74 0.00 93 1015.3
20260502061536 57 292 3.5 13.9 0.00 0.74 0.00 93 1015.2
20260502060038 58 2 4.3 10.4 0.00 0.74 0.00 94 1015.2
20260502054540 57 349 4.3 10.4 0.00 0.74 0.00 94 1015.2
20260502053039 58 322 6.1 13.9 0.00 0.74 0.00 94 1015.3
20260502051540 58 323 5.2 10.4 0.00 0.74 0.00 95 1014.8
20260502050042 59 311 4.3 8.7 0.00 0.74 0.00 95 1014.6
20260502044539 59 312 4.3 8.7 0.00 0.74 0.74 95 1014.1
20260502043039 59 340 3.5 10.4 0.00 0.74 0.74 96 1013.9
20260502041541 59 319 4.3 9.6 0.00 0.74 0.74 96 1014.1
20260502040043 59 300 3.5 7.8 0.00 0.74 0.74 96 1014.2
20260502034537 59 352 2.6 7.0 0.00 0.74 0.74 96 1013.9
20260502033038 60 15 3.5 7.0 0.00 0.74 0.74 96 1013.9
20260502031542 60 353 2.6 6.1 0.02 0.74 0.74 97 1013.6
20260502030053 60 8 2.6 7.0 0.03 0.74 0.74 96 1013.2
20260502024544 60 330 3.5 6.1 0.03 0.74 0.74 96 1012.9
20260502023100 60 346 2.6 11.3 0.09 0.74 0.74 96 1012.6
20260502021543 60 352 2.6 7.0 0.13 0.72 0.72 96 1013.1
20260502020038 60 326 3.5 6.1 0.13 0.71 0.71 96 1012.7
20260502014546 61 328 3.5 9.6 0.13 0.71 0.71 96 1012.4
20260502013043 61 248 4.3 10.4 0.09 0.65 0.65 96 1012.8
20260502011543 61 338 4.3 7.8 0.08 0.58 0.58 96 1011.9
20260502010041 62 340 4.3 7.8 0.10 0.58 0.58 96 1011.9
20260502004545 62 340 5.2 9.6 0.10 0.58 0.58 96 1011.2
20260502003044 62 273 6.1 14.8 0.08 0.56 0.56 95 1010.8
20260502001538 63 299 2.6 12.2 0.01 0.49 0.49 95 1010.8
20260502000041 64 287 4.3 9.6 0.00 0.48 0.48 95 1009.7
20260501234542 64 328 5.2 11.3 0.00 0.48 0.48 96 1008.2
20260501233040 64 20 5.2 10.4 0.00 0.48 0.48 96 1008.3
20260501231539 64 330 4.3 10.4 0.00 0.48 0.48 96 1008.5
20260501230040 64 324 4.3 12.2 0.00 0.48 0.48 96 1007.9
20260501224544 64 334 5.2 10.4 0.02 0.48 0.48 96 1007.9
20260501223046 64 340 4.3 11.3 0.02 0.48 0.48 96 1008.5
20260501221543 64 347 4.3 9.6 0.03 0.48 0.48 96 1008.6
20260501220040 64 311 3.5 7.0 0.07 0.48 0.48 96 1009.1
20260501214538 65 32 2.6 7.8 0.30 0.46 0.46 96 1009.7
20260501213041 65 314 3.5 7.8 0.34 0.46 0.46 96 1008.6
20260501211537 65 355 4.3 10.4 0.34 0.45 0.45 95 1008.5
20260501210037 66 355 2.6 7.0 0.30 0.41 0.41 95 1008.8
20260501204544 66 6 1.7 8.7 0.11 0.16 0.16 95 1010.4
20260501203053 66 302 4.3 9.6 0.08 0.12 0.12 95 1008.0
20260501201540 66 335 3.5 8.7 0.07 0.11 0.11 95 1007.8
20260501200037 66 358 2.6 10.4 0.08 0.11 0.11 94 1006.7
20260501194538 66 46 3.5 7.8 0.02 0.05 0.05 93 1007.9
20260501193037 66 335 3.5 7.0 0.01 0.04 0.04 92 1008.3
20260501191542 67 325 1.7 7.8 0.01 0.04 0.04 90 1008.7
20260501190037 68 349 3.5 8.7 0.00 0.03 0.03 87 1008.9
20260501184558 68 359 3.5 8.7 0.00 0.03 0.03 88 1008.7
20260501183043 68 357 4.3 9.6 0.00 0.03 0.03 90 1008.9
20260501181539 67 358 2.6 12.2 0.00 0.03 0.03 91 1009.1
20260501180040 67 359 6.1 9.6 0.00 0.03 0.03 91 1009.1
20260501174540 67 320 3.5 9.6 0.00 0.03 0.03 92 1009.5
20260501173037 67 346 4.3 10.4 0.00 0.03 0.03 92 1009.6
20260501171541 68 345 4.3 9.6 0.00 0.03 0.03 92 1009.9
20260501170039 69 346 5.2 8.7 0.00 0.03 0.03 91 1010.3
20260501164552 70 355 3.5 7.8 0.00 0.03 0.03 92 1010.3
20260501163040 69 340 4.3 7.8 0.00 0.03 0.03 93 1010.3
20260501161542 69 304 2.6 7.0 0.00 0.03 0.03 93 1010.4
20260501160041 69 12 2.6 6.1 0.00 0.03 0.03 94 1010.4
20260501154543 69 341 1.7 7.0 0.00 0.03 0.03 94 1010.4
20260501153039 68 35 3.5 6.1 0.00 0.03 0.03 94 1009.9
20260501151540 68 4 4.3 8.7 0.00 0.03 0.03 94 1009.9
20260501150044 68 331 3.5 7.8 0.00 0.03 0.03 95 1009.9
20260501144542 68 302 2.6 5.2 0.02 0.03 0.03 95 1010.7